Time,TemperatureF,DewpointF,PressureIn,WindDirection,WindDirectionDegrees,WindSpeedMPH,WindSpeedGustMPH,Humidity,HourlyPrecipIn,Conditions,Clouds,dailyrainin,SoftwareType,DateUTC
2013-03-20 00:02:00,28.2,26.4,29.76,NW,315,0.0,0.0,93,0.00,,,0.00,meteohub,2013-03-20 04:02:00,
2013-03-20 00:07:00,28.0,26.1,29.76,North,0,0.0,0.0,92,0.00,,,0.00,meteohub,2013-03-20 04:07:00,
2013-03-20 00:12:00,28.0,26.1,29.76,NW,315,0.0,0.0,92,0.00,,,0.00,meteohub,2013-03-20 04:12:00,
2013-03-20 00:17:00,27.9,25.5,29.76,NNE,22,0.0,0.0,91,0.00,,,0.00,meteohub,2013-03-20 04:17:00,
2013-03-20 00:27:00,27.9,25.3,29.79,North,0,0.0,0.0,90,0.00,,,0.00,meteohub,2013-03-20 04:27:00,
2013-03-20 00:37:00,27.9,25.3,29.79,NNW,338,0.0,0.0,90,0.00,,,0.00,meteohub,2013-03-20 04:37:00,
2013-03-20 00:42:00,27.9,25.3,29.79,North,0,0.0,0.0,90,0.00,,,0.00,meteohub,2013-03-20 04:42:00,
2013-03-20 00:47:00,27.7,25.2,29.79,NNW,338,0.0,0.0,90,0.00,,,0.00,meteohub,2013-03-20 04:47:00,
2013-03-20 00:52:00,27.7,25.2,29.79,North,0,0.0,0.0,90,0.00,,,0.00,meteohub,2013-03-20 04:52:00,
2013-03-20 00:57:00,27.9,25.3,29.79,NNW,338,0.0,0.0,90,0.00,,,0.00,meteohub,2013-03-20 04:57:00,
2013-03-20 01:07:00,27.7,25.2,29.79,North,0,0.0,0.0,90,0.00,,,0.00,meteohub,2013-03-20 05:07:00,
2013-03-20 01:12:00,27.7,25.2,29.76,North,0,0.0,0.0,90,0.00,,,0.00,meteohub,2013-03-20 05:12:00,
2013-03-20 01:22:00,27.5,25.0,29.76,North,0,0.0,0.0,90,0.00,,,0.00,meteohub,2013-03-20 05:22:00,
2013-03-20 01:27:00,27.5,25.0,29.79,NNE,22,0.0,0.0,90,0.00,,,0.00,meteohub,2013-03-20 05:27:00,
2013-03-20 01:37:00,27.5,25.0,29.79,NNW,338,0.0,0.0,90,0.00,,,0.00,meteohub,2013-03-20 05:37:00,
2013-03-20 01:42:00,27.7,25.2,29.79,North,0,0.0,0.0,90,0.00,,,0.00,meteohub,2013-03-20 05:42:00,
2013-03-20 01:47:00,27.7,25.2,29.79,NNW,338,0.0,0.0,90,0.00,,,0.00,meteohub,2013-03-20 05:47:00,
2013-03-20 01:52:00,27.7,25.2,29.79,NNW,338,0.0,0.0,90,0.00,,,0.00,meteohub,2013-03-20 05:52:00,
2013-03-20 01:57:00,27.7,25.2,29.79,NW,315,0.0,0.0,90,0.00,,,0.00,meteohub,2013-03-20 05:57:00,
2013-03-20 02:07:00,27.7,25.2,29.79,NW,315,0.0,0.0,90,0.00,,,0.00,meteohub,2013-03-20 06:07:00,
2013-03-20 02:12:00,27.9,25.3,29.82,NW,315,0.0,0.0,90,0.00,,,0.00,meteohub,2013-03-20 06:12:00,
2013-03-20 02:17:00,27.7,25.2,29.82,NW,315,0.0,0.0,90,0.00,,,0.00,meteohub,2013-03-20 06:17:00,
2013-03-20 02:27:00,27.5,25.0,29.79,SSW,202,0.0,0.0,90,0.00,,,0.00,meteohub,2013-03-20 06:27:00,
2013-03-20 02:32:00,27.3,24.8,29.79,NW,315,0.0,0.0,90,0.00,,,0.00,meteohub,2013-03-20 06:32:00,
2013-03-20 02:42:00,27.0,24.1,29.79,West,270,0.0,0.0,89,0.00,,,0.00,meteohub,2013-03-20 06:42:00,
2013-03-20 02:47:00,26.8,23.9,29.79,West,270,0.0,0.0,89,0.00,,,0.00,meteohub,2013-03-20 06:47:00,
2013-03-20 02:52:00,26.2,23.4,29.79,SSW,202,0.0,0.0,89,0.00,,,0.00,meteohub,2013-03-20 06:52:00,
2013-03-20 03:02:00,25.9,23.2,29.79,ESE,112,0.0,0.0,89,0.00,,,0.00,meteohub,2013-03-20 07:02:00,
2013-03-20 03:07:00,25.9,23.2,29.79,SSE,158,0.0,0.0,89,0.00,,,0.00,meteohub,2013-03-20 07:07:00,
2013-03-20 03:12:00,25.5,22.8,29.79,SSE,158,0.0,0.0,89,0.00,,,0.00,meteohub,2013-03-20 07:12:00,
2013-03-20 03:17:00,25.3,22.6,29.79,South,180,0.0,0.0,89,0.00,,,0.00,meteohub,2013-03-20 07:17:00,
2013-03-20 03:22:00,25.3,22.6,29.79,SSW,202,0.0,0.0,89,0.00,,,0.00,meteohub,2013-03-20 07:22:00,
2013-03-20 03:27:00,25.2,22.5,29.79,ESE,112,0.0,0.0,89,0.00,,,0.00,meteohub,2013-03-20 07:27:00,
2013-03-20 03:32:00,25.0,22.3,29.79,ESE,112,0.0,0.0,89,0.00,,,0.00,meteohub,2013-03-20 07:32:00,
2013-03-20 03:42:00,24.6,21.9,29.79,South,180,0.0,0.0,89,0.00,,,0.00,meteohub,2013-03-20 07:42:00,
2013-03-20 03:47:00,24.4,21.7,29.79,SSW,202,0.0,0.0,89,0.00,,,0.00,meteohub,2013-03-20 07:47:00,
2013-03-20 03:57:00,24.6,22.1,29.79,South,180,0.0,0.0,90,0.00,,,0.00,meteohub,2013-03-20 07:57:00,
2013-03-20 04:02:00,24.6,21.9,29.79,SSW,202,0.0,0.0,89,0.00,,,0.00,meteohub,2013-03-20 08:02:00,
2013-03-20 04:07:00,24.4,21.7,29.79,South,180,0.0,0.0,89,0.00,,,0.00,meteohub,2013-03-20 08:07:00,
2013-03-20 04:12:00,24.4,21.7,29.82,WNW,292,0.0,0.0,89,0.00,,,0.00,meteohub,2013-03-20 08:12:00,
2013-03-20 04:17:00,24.6,21.9,29.82,West,270,0.0,0.0,89,0.00,,,0.00,meteohub,2013-03-20 08:17:00,
2013-03-20 04:22:00,24.8,22.3,29.82,WSW,248,0.0,0.0,90,0.00,,,0.00,meteohub,2013-03-20 08:22:00,
2013-03-20 04:27:00,25.2,22.5,29.82,SSW,202,0.0,0.0,89,0.00,,,0.00,meteohub,2013-03-20 08:27:00,
2013-03-20 04:32:00,25.2,22.5,29.82,West,270,0.0,0.0,89,0.00,,,0.00,meteohub,2013-03-20 08:32:00,
2013-03-20 04:37:00,25.2,22.5,29.82,SW,225,0.0,0.0,89,0.00,,,0.00,meteohub,2013-03-20 08:37:00,
2013-03-20 04:42:00,25.0,21.9,29.82,WSW,248,0.0,0.0,88,0.00,,,0.00,meteohub,2013-03-20 08:42:00,
2013-03-20 04:47:00,25.0,21.9,29.82,West,270,0.0,0.0,88,0.00,,,0.00,meteohub,2013-03-20 08:47:00,
2013-03-20 04:52:00,24.8,21.7,29.82,South,180,0.0,0.0,88,0.00,,,0.00,meteohub,2013-03-20 08:52:00,
2013-03-20 04:57:00,24.6,21.6,29.79,West,270,0.0,0.0,88,0.00,,,0.00,meteohub,2013-03-20 08:57:00,
2013-03-20 05:07:00,24.4,21.4,29.79,WNW,292,0.0,0.0,88,0.00,,,0.00,meteohub,2013-03-20 09:07:00,
2013-03-20 05:12:00,24.3,21.0,29.82,SW,225,0.0,0.0,87,0.00,,,0.00,meteohub,2013-03-20 09:12:00,
2013-03-20 05:17:00,24.3,21.0,29.82,South,180,0.0,0.0,87,0.00,,,0.00,meteohub,2013-03-20 09:17:00,
2013-03-20 05:22:00,24.4,21.2,29.82,SSW,202,0.0,0.0,87,0.00,,,0.00,meteohub,2013-03-20 09:22:00,
2013-03-20 05:32:00,24.4,21.2,29.82,South,180,0.0,0.0,87,0.00,,,0.00,meteohub,2013-03-20 09:32:00,
2013-03-20 05:37:00,24.4,21.2,29.82,WSW,248,0.0,0.0,87,0.00,,,0.00,meteohub,2013-03-20 09:37:00,
2013-03-20 05:42:00,24.3,21.0,29.82,WSW,248,0.0,0.0,87,0.00,,,0.00,meteohub,2013-03-20 09:42:00,
2013-03-20 05:47:00,24.3,21.0,29.82,WSW,248,0.0,0.0,87,0.00,,,0.00,meteohub,2013-03-20 09:47:00,
2013-03-20 05:52:00,24.3,21.0,29.82,WSW,248,0.0,0.0,87,0.00,,,0.00,meteohub,2013-03-20 09:52:00,
2013-03-20 05:57:00,24.3,20.7,29.82,SSW,202,0.0,0.0,86,0.00,,,0.00,meteohub,2013-03-20 09:57:00,
2013-03-20 06:02:00,24.3,20.7,29.82,South,180,0.0,0.0,86,0.00,,,0.00,meteohub,2013-03-20 10:02:00,
2013-03-20 06:07:00,23.9,20.3,29.82,SW,225,0.0,0.0,86,0.00,,,0.00,meteohub,2013-03-20 10:07:00,
2013-03-20 06:12:00,23.9,20.3,29.79,WSW,248,0.0,0.0,86,0.00,,,0.00,meteohub,2013-03-20 10:12:00,
2013-03-20 06:17:00,23.7,20.1,29.79,WSW,248,0.0,0.0,86,0.00,,,0.00,meteohub,2013-03-20 10:17:00,
2013-03-20 06:22:00,23.9,20.3,29.79,WSW,248,0.0,0.0,86,0.00,,,0.00,meteohub,2013-03-20 10:22:00,
2013-03-20 06:27:00,23.9,20.3,29.82,SW,225,0.0,0.0,86,0.00,,,0.00,meteohub,2013-03-20 10:27:00,
2013-03-20 06:32:00,23.7,20.1,29.82,WSW,248,0.0,0.0,86,0.00,,,0.00,meteohub,2013-03-20 10:32:00,
2013-03-20 06:42:00,23.5,19.8,29.82,SSW,202,0.0,0.0,85,0.00,,,0.00,meteohub,2013-03-20 10:42:00,
2013-03-20 06:47:00,23.7,19.9,29.82,SSW,202,0.0,0.0,85,0.00,,,0.00,meteohub,2013-03-20 10:47:00,
2013-03-20 06:52:00,23.7,19.9,29.82,SSW,202,0.0,0.0,85,0.00,,,0.00,meteohub,2013-03-20 10:52:00,
2013-03-20 06:57:00,23.5,19.8,29.79,South,180,0.0,0.0,85,0.00,,,0.00,meteohub,2013-03-20 10:57:00,
2013-03-20 07:02:00,23.5,19.8,29.79,WNW,292,0.0,0.0,85,0.00,,,0.00,meteohub,2013-03-20 11:02:00,
2013-03-20 07:07:00,23.5,19.8,29.79,WNW,292,0.0,0.0,85,0.00,,,0.00,meteohub,2013-03-20 11:07:00,
2013-03-20 07:12:00,23.7,19.9,29.82,South,180,0.0,0.0,85,0.00,,,0.00,meteohub,2013-03-20 11:12:00,
2013-03-20 07:17:00,23.7,19.9,29.82,NW,315,0.0,0.0,85,0.00,,,0.00,meteohub,2013-03-20 11:17:00,
2013-03-20 07:27:00,23.7,19.9,29.82,WNW,292,0.0,0.0,85,0.00,,,0.00,meteohub,2013-03-20 11:27:00,
2013-03-20 07:32:00,23.9,20.1,29.82,WSW,248,0.0,0.0,85,0.00,,,0.00,meteohub,2013-03-20 11:32:00,
2013-03-20 07:37:00,23.9,20.1,29.82,WSW,248,0.0,0.0,85,0.00,,,0.00,meteohub,2013-03-20 11:37:00,
2013-03-20 07:42:00,24.3,20.5,29.82,SW,225,0.0,0.0,85,0.00,,,0.00,meteohub,2013-03-20 11:42:00,
2013-03-20 07:47:00,24.6,20.8,29.82,WSW,248,0.0,0.0,85,0.00,,,0.00,meteohub,2013-03-20 11:47:00,
2013-03-20 07:57:00,25.0,20.3,29.82,WSW,248,0.0,0.0,82,0.00,,,0.00,meteohub,2013-03-20 11:57:00,
2013-03-20 08:07:00,25.3,20.3,29.82,WSW,248,0.0,0.0,81,0.00,,,0.00,meteohub,2013-03-20 12:07:00,
2013-03-20 08:12:00,25.7,20.7,29.82,WSW,248,0.0,0.0,81,0.00,,,0.00,meteohub,2013-03-20 12:12:00,
2013-03-20 08:22:00,26.4,21.0,29.82,WNW,292,0.0,0.0,80,0.00,,,0.00,meteohub,2013-03-20 12:22:00,
2013-03-20 08:27:00,26.8,21.2,29.82,WSW,248,0.0,0.0,79,0.00,,,0.00,meteohub,2013-03-20 12:27:00,
2013-03-20 08:37:00,27.1,21.2,29.82,WSW,248,0.0,0.0,78,0.00,,,0.00,meteohub,2013-03-20 12:37:00,
2013-03-20 08:42:00,27.5,21.2,29.79,WNW,292,0.0,0.0,77,0.00,,,0.00,meteohub,2013-03-20 12:42:00,
2013-03-20 08:47:00,27.9,21.6,29.79,WNW,292,0.0,0.0,77,0.00,,,0.00,meteohub,2013-03-20 12:47:00,
2013-03-20 08:52:00,28.2,21.6,29.79,WSW,248,0.0,0.0,76,0.00,,,0.00,meteohub,2013-03-20 12:52:00,
2013-03-20 08:57:00,28.6,21.9,29.82,WNW,292,0.0,0.0,76,0.00,,,0.00,meteohub,2013-03-20 12:57:00,
2013-03-20 09:07:00,29.3,21.7,29.82,West,270,0.0,0.0,73,0.00,,,0.00,meteohub,2013-03-20 13:07:00,
2013-03-20 09:12:00,29.7,21.7,29.79,WSW,248,0.0,0.0,72,0.00,,,0.00,meteohub,2013-03-20 13:12:00,
2013-03-20 09:17:00,29.8,20.7,29.79,WSW,248,0.0,0.0,68,0.00,,,0.00,meteohub,2013-03-20 13:17:00,
2013-03-20 09:27:00,30.7,21.0,29.79,WSW,248,0.0,0.0,67,0.00,,,0.00,meteohub,2013-03-20 13:27:00,
2013-03-20 09:32:00,31.1,21.0,29.79,SW,225,0.0,0.0,66,0.00,,,0.00,meteohub,2013-03-20 13:32:00,
2013-03-20 09:37:00,31.6,20.1,29.79,West,270,0.0,0.0,62,0.00,,,0.00,meteohub,2013-03-20 13:37:00,
2013-03-20 09:47:00,31.6,19.0,29.82,SSW,202,0.0,0.0,59,0.00,,,0.00,meteohub,2013-03-20 13:47:00,
2013-03-20 09:52:00,31.8,19.2,29.82,SW,225,0.0,0.0,59,0.00,,,0.00,meteohub,2013-03-20 13:52:00,
2013-03-20 10:02:00,32.2,19.0,29.82,SW,225,0.0,0.0,58,0.00,,,0.00,meteohub,2013-03-20 14:02:00,
2013-03-20 10:07:00,32.9,19.8,29.82,WNW,292,0.0,0.0,58,0.00,,,0.00,meteohub,2013-03-20 14:07:00,
2013-03-20 10:12:00,33.6,20.8,29.82,SSW,202,0.0,0.0,59,0.00,,,0.00,meteohub,2013-03-20 14:12:00,
2013-03-20 10:22:00,34.0,19.9,29.82,WSW,248,0.0,0.0,56,0.00,,,0.00,meteohub,2013-03-20 14:22:00,
2013-03-20 10:27:00,34.0,19.0,29.82,WSW,248,0.0,0.0,54,0.00,,,0.00,meteohub,2013-03-20 14:27:00,
2013-03-20 10:37:00,34.7,19.8,29.82,West,270,0.0,0.0,54,0.00,,,0.00,meteohub,2013-03-20 14:37:00,
2013-03-20 10:42:00,34.9,19.9,29.82,WSW,248,0.0,10.0,54,0.00,,,0.00,meteohub,2013-03-20 14:42:00,
2013-03-20 10:47:00,35.2,20.3,29.82,SW,225,0.0,10.0,54,0.00,,,0.00,meteohub,2013-03-20 14:47:00,
2013-03-20 10:52:00,35.6,20.1,29.82,SSW,202,0.0,10.0,53,0.00,,,0.00,meteohub,2013-03-20 14:52:00,
2013-03-20 11:02:00,35.1,19.8,29.82,WSW,248,4.0,6.0,53,0.00,,,0.00,meteohub,2013-03-20 15:02:00,
2013-03-20 11:07:00,35.2,19.9,29.82,WSW,248,6.0,7.0,53,0.00,,,0.00,meteohub,2013-03-20 15:07:00,
2013-03-20 11:12:00,35.8,19.9,29.82,West,270,8.0,9.0,52,0.00,,,0.00,meteohub,2013-03-20 15:12:00,
2013-03-20 11:17:00,36.1,19.8,29.82,WNW,292,6.0,11.0,51,0.00,,,0.00,meteohub,2013-03-20 15:17:00,
2013-03-20 11:27:00,36.9,20.5,29.82,WNW,292,6.0,8.0,51,0.00,,,0.00,meteohub,2013-03-20 15:27:00,
2013-03-20 11:37:00,38.1,21.2,29.82,WNW,292,5.0,8.0,50,0.00,,,0.00,meteohub,2013-03-20 15:37:00,
2013-03-20 11:47:00,36.7,19.4,29.82,WNW,292,6.0,8.0,49,0.00,,,0.00,meteohub,2013-03-20 15:47:00,
2013-03-20 11:52:00,36.7,19.4,29.82,SW,225,4.0,8.0,49,0.00,,,0.00,meteohub,2013-03-20 15:52:00,
2013-03-20 11:57:00,36.5,19.2,29.79,NNW,338,5.0,9.0,49,0.00,,,0.00,meteohub,2013-03-20 15:57:00,
2013-03-20 12:02:00,37.6,19.8,29.79,WSW,248,8.0,10.0,48,0.00,,,0.00,meteohub,2013-03-20 16:02:00,
2013-03-20 12:12:00,37.9,19.6,29.82,WSW,248,3.0,10.0,47,0.00,,,0.00,meteohub,2013-03-20 16:12:00,
2013-03-20 12:17:00,38.8,20.3,29.82,SW,225,7.0,10.0,47,0.00,,,0.00,meteohub,2013-03-20 16:17:00,
2013-03-20 12:22:00,36.9,18.1,29.82,NW,315,4.0,10.0,46,0.00,,,0.00,meteohub,2013-03-20 16:22:00,
2013-03-20 12:32:00,36.9,19.0,29.82,NNW,338,4.0,10.0,48,0.00,,,0.00,meteohub,2013-03-20 16:32:00,
2013-03-20 12:37:00,37.6,18.7,29.82,South,180,2.0,8.0,46,0.00,,,0.00,meteohub,2013-03-20 16:37:00,
2013-03-20 12:42:00,38.1,19.2,29.82,SSW,202,6.0,8.0,46,0.00,,,0.00,meteohub,2013-03-20 16:42:00,
2013-03-20 12:52:00,39.0,19.0,29.82,WNW,292,6.0,9.0,44,0.00,,,0.00,meteohub,2013-03-20 16:52:00,
2013-03-20 12:57:00,38.8,18.3,29.82,WNW,292,4.0,10.0,43,0.00,,,0.00,meteohub,2013-03-20 16:57:00,
2013-03-20 13:07:00,39.2,19.2,29.82,WNW,292,3.0,10.0,44,0.00,,,0.00,meteohub,2013-03-20 17:07:00,
2013-03-20 13:12:00,38.8,18.9,29.82,SW,225,0.0,9.0,44,0.00,,,0.00,meteohub,2013-03-20 17:12:00,
2013-03-20 13:17:00,38.8,18.9,29.82,WSW,248,3.0,9.0,44,0.00,,,0.00,meteohub,2013-03-20 17:17:00,
2013-03-20 13:27:00,41.5,19.6,29.82,WSW,248,5.0,11.0,41,0.00,,,0.00,meteohub,2013-03-20 17:27:00,
2013-03-20 13:32:00,41.2,19.4,29.82,WSW,248,7.0,11.0,41,0.00,,,0.00,meteohub,2013-03-20 17:32:00,
2013-03-20 13:37:00,41.4,19.4,29.82,West,270,4.0,11.0,41,0.00,,,0.00,meteohub,2013-03-20 17:37:00,
2013-03-20 13:42:00,39.9,18.1,29.82,SW,225,10.0,10.0,41,0.00,,,0.00,meteohub,2013-03-20 17:42:00,
2013-03-20 13:47:00,38.8,17.8,29.82,WNW,292,8.0,10.0,42,0.00,,,0.00,meteohub,2013-03-20 17:47:00,
2013-03-20 13:52:00,37.6,16.7,29.82,SW,225,6.0,12.0,42,0.00,,,0.00,meteohub,2013-03-20 17:52:00,
2013-03-20 13:57:00,36.9,16.5,29.79,SSE,158,3.0,12.0,43,0.00,,,0.00,meteohub,2013-03-20 17:57:00,
2013-03-20 14:02:00,37.8,16.7,29.79,WSW,248,3.0,12.0,42,0.00,,,0.00,meteohub,2013-03-20 18:02:00,
2013-03-20 14:07:00,38.1,17.6,29.79,NE,45,6.0,6.0,43,0.00,,,0.00,meteohub,2013-03-20 18:07:00,
2013-03-20 14:17:00,37.6,16.7,29.79,SW,225,3.0,12.0,42,0.00,,,0.00,meteohub,2013-03-20 18:17:00,
2013-03-20 14:22:00,37.9,16.9,29.79,SW,225,4.0,12.0,42,0.00,,,0.00,meteohub,2013-03-20 18:22:00,
2013-03-20 14:27:00,38.3,17.8,29.82,SW,225,4.0,10.0,43,0.00,,,0.00,meteohub,2013-03-20 18:27:00,
2013-03-20 14:32:00,38.7,18.1,29.82,SSE,158,8.0,10.0,43,0.00,,,0.00,meteohub,2013-03-20 18:32:00,
2013-03-20 14:42:00,38.7,17.6,29.82,West,270,4.0,9.0,42,0.00,,,0.00,meteohub,2013-03-20 18:42:00,
2013-03-20 14:52:00,40.1,18.9,29.82,SW,225,5.0,9.0,42,0.05,,,0.05,meteohub,2013-03-20 18:52:00,
2013-03-20 14:57:00,40.6,19.4,29.82,South,180,2.0,11.0,42,0.05,,,0.05,meteohub,2013-03-20 18:57:00,
2013-03-20 15:07:00,39.7,18.5,29.82,SW,225,3.0,10.0,42,0.05,,,0.05,meteohub,2013-03-20 19:07:00,
2013-03-20 15:12:00,39.4,17.8,29.82,WNW,292,5.0,11.0,41,0.05,,,0.05,meteohub,2013-03-20 19:12:00,
2013-03-20 15:17:00,39.4,17.8,29.82,SSW,202,5.0,11.0,41,0.05,,,0.05,meteohub,2013-03-20 19:17:00,
2013-03-20 15:22:00,39.2,18.1,29.82,WSW,248,11.0,11.0,42,0.09,,,0.09,meteohub,2013-03-20 19:22:00,
2013-03-20 15:27:00,39.2,17.6,29.82,SW,225,9.0,11.0,41,0.09,,,0.09,meteohub,2013-03-20 19:27:00,
2013-03-20 15:32:00,39.0,17.4,29.82,SW,225,6.0,12.0,41,0.09,,,0.09,meteohub,2013-03-20 19:32:00,
2013-03-20 15:37:00,39.0,17.4,29.82,WSW,248,10.0,12.0,41,0.09,,,0.09,meteohub,2013-03-20 19:37:00,
2013-03-20 15:47:00,38.5,16.9,29.82,WSW,248,3.0,11.0,41,0.04,,,0.09,meteohub,2013-03-20 19:47:00,
2013-03-20 15:52:00,38.5,16.9,29.82,South,180,3.0,10.0,41,0.04,,,0.09,meteohub,2013-03-20 19:52:00,
2013-03-20 15:57:00,38.5,17.4,29.82,SW,225,4.0,7.0,42,0.04,,,0.09,meteohub,2013-03-20 19:57:00,
2013-03-20 16:02:00,38.5,17.4,29.82,WSW,248,6.0,9.0,42,0.08,,,0.13,meteohub,2013-03-20 20:02:00,
2013-03-20 16:07:00,38.5,17.4,29.82,South,180,6.0,9.0,42,0.08,,,0.13,meteohub,2013-03-20 20:07:00,
2013-03-20 16:17:00,38.1,16.5,29.82,WSW,248,8.0,13.0,41,0.04,,,0.13,meteohub,2013-03-20 20:17:00,
2013-03-20 16:22:00,37.8,16.7,29.82,WSW,248,4.0,13.0,42,0.04,,,0.13,meteohub,2013-03-20 20:22:00,
2013-03-20 16:32:00,37.6,16.7,29.82,West,270,6.0,10.0,42,0.04,,,0.13,meteohub,2013-03-20 20:32:00,
2013-03-20 16:37:00,37.8,16.7,29.82,WSW,248,7.0,10.0,42,0.04,,,0.13,meteohub,2013-03-20 20:37:00,
2013-03-20 16:42:00,37.4,16.0,29.82,South,180,4.0,10.0,41,0.04,,,0.13,meteohub,2013-03-20 20:42:00,
2013-03-20 16:47:00,37.4,16.0,29.82,WNW,292,4.0,12.0,41,0.04,,,0.13,meteohub,2013-03-20 20:47:00,
2013-03-20 16:52:00,37.0,16.2,29.82,WNW,292,3.0,12.0,42,0.04,,,0.13,meteohub,2013-03-20 20:52:00,
2013-03-20 17:02:00,36.9,16.0,29.82,WSW,248,6.0,11.0,42,0.04,,,0.17,meteohub,2013-03-20 21:02:00,
2013-03-20 17:12:00,36.3,15.4,29.82,SW,225,4.0,11.0,42,0.04,,,0.17,meteohub,2013-03-20 21:12:00,
2013-03-20 17:17:00,36.3,16.0,29.82,WNW,292,3.0,10.0,43,0.04,,,0.17,meteohub,2013-03-20 21:17:00,
2013-03-20 17:27:00,36.3,16.0,29.82,WNW,292,5.0,10.0,43,0.04,,,0.17,meteohub,2013-03-20 21:27:00,
2013-03-20 17:32:00,36.1,15.8,29.82,West,270,3.0,10.0,43,0.04,,,0.17,meteohub,2013-03-20 21:32:00,
2013-03-20 17:42:00,36.0,15.6,29.82,West,270,2.0,8.0,43,0.04,,,0.17,meteohub,2013-03-20 21:42:00,
2013-03-20 17:47:00,35.8,16.0,29.82,South,180,5.0,8.0,44,0.04,,,0.17,meteohub,2013-03-20 21:47:00,
2013-03-20 17:52:00,35.8,16.0,29.82,West,270,5.0,10.0,44,0.04,,,0.17,meteohub,2013-03-20 21:52:00,
2013-03-20 18:02:00,35.4,15.8,29.82,West,270,4.0,11.0,44,0.00,,,0.17,meteohub,2013-03-20 22:02:00,
2013-03-20 18:12:00,35.4,16.7,29.82,WNW,292,3.0,11.0,46,0.00,,,0.17,meteohub,2013-03-20 22:12:00,
2013-03-20 18:17:00,35.2,16.5,29.82,NW,315,1.0,5.0,46,0.00,,,0.17,meteohub,2013-03-20 22:17:00,
2013-03-20 18:22:00,35.1,16.3,29.82,WSW,248,1.0,6.0,46,0.00,,,0.17,meteohub,2013-03-20 22:22:00,
2013-03-20 18:27:00,34.9,16.7,29.82,SSW,202,4.0,6.0,47,0.00,,,0.17,meteohub,2013-03-20 22:27:00,
2013-03-20 18:32:00,34.9,16.7,29.82,SW,225,3.0,6.0,47,0.00,,,0.17,meteohub,2013-03-20 22:32:00,
2013-03-20 18:37:00,34.7,16.5,29.82,SSW,202,4.0,4.0,47,0.00,,,0.17,meteohub,2013-03-20 22:37:00,
2013-03-20 18:42:00,34.3,16.7,29.82,SSW,202,0.0,5.0,48,0.00,,,0.17,meteohub,2013-03-20 22:42:00,
2013-03-20 18:47:00,34.2,16.2,29.82,SSW,202,1.0,5.0,47,0.00,,,0.17,meteohub,2013-03-20 22:47:00,
2013-03-20 18:52:00,34.0,16.3,29.82,WSW,248,0.0,5.0,48,0.00,,,0.17,meteohub,2013-03-20 22:52:00,
2013-03-20 18:57:00,33.6,16.5,29.85,WSW,248,6.0,6.0,49,0.00,,,0.17,meteohub,2013-03-20 22:57:00,
2013-03-20 19:02:00,33.6,17.1,29.85,WSW,248,0.0,6.0,50,0.00,,,0.17,meteohub,2013-03-20 23:02:00,
2013-03-20 19:07:00,33.3,16.2,29.85,WSW,248,0.0,6.0,49,0.00,,,0.17,meteohub,2013-03-20 23:07:00,
2013-03-20 19:17:00,32.9,15.8,29.82,SW,225,1.0,4.0,49,0.00,,,0.17,meteohub,2013-03-20 23:17:00,
2013-03-20 19:22:00,32.9,15.8,29.82,WSW,248,2.0,4.0,49,0.00,,,0.17,meteohub,2013-03-20 23:22:00,
2013-03-20 19:27:00,32.7,15.8,29.85,SW,225,0.0,4.0,49,0.00,,,0.17,meteohub,2013-03-20 23:27:00,
2013-03-20 19:32:00,32.7,15.8,29.85,SSW,202,1.0,4.0,49,0.00,,,0.17,meteohub,2013-03-20 23:32:00,
2013-03-20 19:42:00,32.5,16.0,29.85,South,180,0.0,3.0,50,0.00,,,0.17,meteohub,2013-03-20 23:42:00,
2013-03-20 19:47:00,32.5,16.0,29.85,SW,225,2.0,3.0,50,0.00,,,0.17,meteohub,2013-03-20 23:47:00,
2013-03-20 19:52:00,32.5,16.0,29.85,SW,225,2.0,6.0,50,0.00,,,0.17,meteohub,2013-03-20 23:52:00,
2013-03-20 20:02:00,32.5,16.0,29.85,South,180,2.0,6.0,50,0.00,,,0.17,meteohub,2013-03-21 00:02:00,
2013-03-20 20:07:00,32.5,16.0,29.85,SW,225,2.0,4.0,50,0.00,,,0.00,meteohub,2013-03-21 00:07:00,
2013-03-20 20:17:00,32.2,15.3,29.85,SSW,202,0.0,2.0,49,0.00,,,0.00,meteohub,2013-03-21 00:17:00,
2013-03-20 20:22:00,32.0,15.4,29.85,SSE,158,3.0,3.0,50,0.00,,,0.00,meteohub,2013-03-21 00:22:00,
2013-03-20 20:32:00,31.6,15.1,29.85,SSE,158,2.0,3.0,50,0.00,,,0.00,meteohub,2013-03-21 00:32:00,
2013-03-20 20:37:00,31.6,15.1,29.85,South,180,2.0,3.0,50,0.00,,,0.00,meteohub,2013-03-21 00:37:00,
2013-03-20 20:42:00,31.5,15.1,29.85,South,180,0.0,3.0,50,0.00,,,0.00,meteohub,2013-03-21 00:42:00,
2013-03-20 20:47:00,31.5,15.1,29.85,South,180,1.0,3.0,50,0.00,,,0.00,meteohub,2013-03-21 00:47:00,
2013-03-20 20:52:00,31.3,15.3,29.85,South,180,2.0,3.0,51,0.00,,,0.00,meteohub,2013-03-21 00:52:00,
2013-03-20 20:57:00,31.3,15.3,29.85,SSW,202,1.0,3.0,51,0.00,,,0.00,meteohub,2013-03-21 00:57:00,
2013-03-20 21:02:00,31.1,14.7,29.85,South,180,0.0,3.0,50,0.00,,,0.00,meteohub,2013-03-21 01:02:00,
2013-03-20 21:07:00,31.1,15.1,29.85,South,180,0.0,3.0,51,0.00,,,0.00,meteohub,2013-03-21 01:07:00,
2013-03-20 21:12:00,30.9,14.9,29.85,South,180,1.0,2.0,51,0.00,,,0.00,meteohub,2013-03-21 01:12:00,
2013-03-20 21:17:00,30.9,14.9,29.85,SSW,202,2.0,3.0,51,0.00,,,0.00,meteohub,2013-03-21 01:17:00,
2013-03-20 21:22:00,30.7,14.7,29.85,SSE,158,2.0,3.0,51,0.00,,,0.00,meteohub,2013-03-21 01:22:00,
2013-03-20 21:27:00,30.7,14.7,29.85,SSW,202,2.0,3.0,51,0.00,,,0.00,meteohub,2013-03-21 01:27:00,
2013-03-20 21:32:00,30.7,14.7,29.85,South,180,3.0,4.0,51,0.00,,,0.00,meteohub,2013-03-21 01:32:00,
2013-03-20 21:42:00,30.6,14.5,29.88,South,180,2.0,4.0,51,0.00,,,0.00,meteohub,2013-03-21 01:42:00,
2013-03-20 21:47:00,30.6,14.5,29.88,South,180,0.0,4.0,51,0.00,,,0.00,meteohub,2013-03-21 01:47:00,
2013-03-20 21:52:00,30.4,14.4,29.88,South,180,1.0,4.0,51,0.00,,,0.00,meteohub,2013-03-21 01:52:00,
2013-03-20 21:57:00,30.2,14.7,29.88,South,180,0.0,3.0,52,0.00,,,0.00,meteohub,2013-03-21 01:57:00,
2013-03-20 22:02:00,30.0,14.5,29.88,South,180,2.0,3.0,52,0.00,,,0.00,meteohub,2013-03-21 02:02:00,
2013-03-20 22:07:00,30.0,14.5,29.88,SSE,158,2.0,4.0,52,0.00,,,0.00,meteohub,2013-03-21 02:07:00,
2013-03-20 22:17:00,29.7,14.2,29.88,SSE,158,2.0,3.0,52,0.00,,,0.00,meteohub,2013-03-21 02:17:00,
2013-03-20 22:22:00,29.7,14.2,29.88,SSE,158,3.0,3.0,52,0.00,,,0.00,meteohub,2013-03-21 02:22:00,
2013-03-20 22:27:00,29.7,14.2,29.88,SE,135,2.0,3.0,52,0.00,,,0.00,meteohub,2013-03-21 02:27:00,
2013-03-20 22:32:00,29.7,14.7,29.88,SSE,158,2.0,3.0,53,0.00,,,0.00,meteohub,2013-03-21 02:32:00,
2013-03-20 22:37:00,29.5,14.5,29.88,South,180,3.0,3.0,53,0.00,,,0.00,meteohub,2013-03-21 02:37:00,
2013-03-20 22:42:00,29.5,14.5,29.88,SSE,158,2.0,3.0,53,0.00,,,0.00,meteohub,2013-03-21 02:42:00,
2013-03-20 22:47:00,29.5,14.5,29.88,SSE,158,2.0,3.0,53,0.00,,,0.00,meteohub,2013-03-21 02:47:00,
2013-03-20 22:52:00,29.3,14.4,29.88,South,180,2.0,3.0,53,0.00,,,0.00,meteohub,2013-03-21 02:52:00,
2013-03-20 22:57:00,29.3,14.7,29.88,South,180,2.0,3.0,54,0.00,,,0.00,meteohub,2013-03-21 02:57:00,
2013-03-20 23:02:00,29.3,14.7,29.88,South,180,2.0,3.0,54,0.00,,,0.00,meteohub,2013-03-21 03:02:00,
2013-03-20 23:07:00,29.1,14.5,29.88,South,180,2.0,3.0,54,0.00,,,0.00,meteohub,2013-03-21 03:07:00,
2013-03-20 23:17:00,28.8,14.2,29.88,South,180,0.0,3.0,54,0.00,,,0.00,meteohub,2013-03-21 03:17:00,
2013-03-20 23:27:00,28.4,14.4,29.88,South,180,0.0,3.0,55,0.00,,,0.00,meteohub,2013-03-21 03:27:00,
2013-03-20 23:32:00,28.0,14.0,29.88,South,180,0.0,1.0,55,0.00,,,0.00,meteohub,2013-03-21 03:32:00,
2013-03-20 23:37:00,27.9,13.8,29.88,South,180,0.0,0.0,55,0.00,,,0.00,meteohub,2013-03-21 03:37:00,
2013-03-20 23:42:00,27.9,13.8,29.88,South,180,0.0,2.0,55,0.00,,,0.00,meteohub,2013-03-21 03:42:00,
2013-03-20 23:47:00,27.5,13.8,29.88,South,180,0.0,2.0,56,0.00,,,0.00,meteohub,2013-03-21 03:47:00,
2013-03-20 23:52:00,27.3,13.6,29.88,South,180,0.0,2.0,56,0.00,,,0.00,meteohub,2013-03-21 03:52:00,